Location: Prairie View Elementary School
(39.8322°N, 99.5698°W)
Time: 09:46:40
(UTC+00:00)

Cosmos 1933 Rocket - Pass Details

Date: 08 December 2019
Orbit: 608 x 629 km, 82.5° (Epoch: 18 January)

Event Time Altitude Azimuth Distance (km) Brightness Sun altitude
Rises 11:08:18 0° 172° (S) 2,852 7.1 -29.6°
Reaches altitude 10° 11:10:33 10° 166° (SSE) 1,952 6.3 -29.2°
Maximum altitude 11:14:41 47° 93° (E) 812 4.4 -28.4°
Drops below altitude 10° 11:18:52 10° 20° (NNE) 1,968 6.2 -27.6°
Sets 11:21:09 0° 14° (NNE) 2,879 7.1 -27.2°
